Wind_Speed
55 54 54 51 46 43 41 43 43 45 43 38 39 38 37 37 29 27 31 28 29 30 30 32 33 34 35 36 36 34 36 37 37 38 38 38 37 37 38 38 38 39 39 40
50 52 48 45 42 40 39 44 41 38 30 34 39 34 28 27 32 32 31 23 30 34 34 33 31 36 36 37 37 36 36 37 37 37 37 38 37 38 39 40 41 42 43 45
44 44 40 40 39 43 42 46 42 42 42 35 35 36 35 29 29 27 22 27 33 33 36 36 33 35 37 38 37 38 36 37 37 38 39 40 40 42 43 42 43 45 48 50
27 38 37 39 43 37 38 37 39 43 35 33 33 33 31 34 21 24 23 29 30 32 34 36 35 35 36 36 35 37 38 37 38 39 41 42 42 43 46 47 49 51 53 56
32 29 35 34 35 35 35 37 34 36 36 34 32 31 25 29 27 20 22 25 27 30 32 34 34 34 34 35 35 38 39 41 41 42 42 44 46 48 51 53 56 58 60 61
31 33 27 33 31 30 30 30 30 32 31 34 24 30 28 29 24 25 24 26 28 29 31 32 31 33 35 36 38 39 41 42 44 45 47 48 51 54 56 59 61 63 64 65
25 24 27 24 24 25 28 29 27 28 28 27 26 26 32 25 25 27 27 28 28 28 30 32 33 35 36 37 39 40 42 45 47 49 51 54 57 59 61 64 65 65 64 64
19 21 22 24 23 24 22 24 24 26 14 18 23 26 24 25 24 27 26 27 28 28 30 32 33 35 36 38 40 43 46 48 51 53 56 57 58 59 60 61 61 63 64 65
14 18 19 22 21 23 23 24 24 22 23 25 27 30 30 24 23 25 26 27 28 29 30 32 34 37 39 42 44 46 48 49 50 51 53 55 58 60 61 62 65 68 70 72
20 17 19 19 21 22 21 21 22 25 26 27 17 21 31 23 21 24 26 28 29 31 34 37 39 41 41 42 43 44 46 47 49 52 55 58 61 64 67 69 71 73 74 71
16 15 15 17 18 19 18 19 21 23 22 22 19 26 29 28 25 26 27 30 33 36 37 38 38 38 39 40 42 44 47 50 52 55 60 63 66 68 70 70 69 68 68 69
14 14 15 14 16 16 16 16 17 19 22 18 20 23 25 26 25 28 31 33 35 35 35 36 35 35 38 42 45 48 51 53 56 60 63 67 68 68 68 69 70 72 73 72
12 13 11 14 15 14 14 15 17 17 17 16 19 21 23 27 28 32 33 31 31 30 31 35 38 42 45 47 50 52 54 56 60 63 68 70 70 71 72 72 73 72 72 72
12 12 13 12 10 12 13 14 14 15 14 18 19 25 25 28 27 28 30 28 28 34 38 44 46 49 50 54 56 57 59 62 65 69 71 72 72 72 71 70 69 70 70 71
12 13 12 11 11 12 12 13 13 14 17 21 22 26 30 29 24 22 23 32 37 41 45 48 52 55 58 57 58 58 61 66 69 71 72 71 70 69 68 68 69 71 74 77
10 10 11 11 11 11 12 14 16 19 21 23 24 24 22 26 25 28 33 36 42 47 51 55 57 58 57 58 59 63 68 71 71 72 71 69 69 69 69 72 77 80 77 76
9 10 10 10 12 14 15 17 19 21 21 21 21 20 19 20 26 31 38 44 49 52 56 60 61 59 59 60 64 68 70 71 71 69 68 68 69 71 75 75 70 65 62 59
9 10 13 14 16 18 17 20 19 18 18 18 15 16 20 26 31 37 44 46 52 56 58 60 59 60 62 64 68 70 71 71 68 66 68 71 72 71 65 60 58 55 51 47
13 15 16 18 18 20 14 18 16 16 12 14 17 21 28 33 38 46 46 50 55 59 61 61 61 62 65 69 70 70 69 67 67 69 70 70 64 59 57 53 48 43 38 38
16 18 20 19 19 17 15 17 16 11 12 18 23 28 34 39 42 48 53 57 60 61 60 60 62 65 67 68 70 70 67 67 68 69 66 58 55 52 48 43 38 38 37 38
20 19 18 19 17 15 15 11 10 15 19 23 29 35 42 45 48 53 58 61 62 61 61 63 65 67 69 71 70 67 67 67 66 59 52 51 48 45 39 35 37 38 39 41
18 19 17 18 16 15 13 13 17 19 24 29 35 41 46 50 54 59 63 64 63 62 63 67 71 72 72 70 66 65 65 62 54 49 47 45 45 37 34 35 38 40 42 39
18 17 17 18 15 14 15 18 20 25 29 34 41 44 49 54 59 63 63 64 64 65 68 71 72 71 68 65 65 64 58 50 47 44 42 43 35 31 33 37 38 41 39 36
19 18 19 18 17 19 19 22 25 29 35 40 45 50 54 58 62 64 65 64 66 69 72 72 71 68 65 64 61 54 47 44 42 40 39 33 28 30 35 38 43 40 35 32
18 21 20 19 21 21 24 26 29 33 40 44 50 54 58 60 62 63 64 66 69 71 71 70 68 66 64 56 48 44 43 40 37 36 33 27 30 31 35 40 43 37 32 29
21 22 20 20 23 25 24 29 35 39 43 48 53 56 58 60 61 64 65 68 69 69 69 66 65 61 50 43 42 42 39 36 35 32 26 28 29 33 36 39 34 34 30 26
Wind_Direction
216 219 222 225 225 228 232 237 236 243 250 254 260 269 280 254 255 263 272 283 287 288 285 286 289 288 288 288 289 291 289 289 287 286 286 285 284 284 282 281 280 279 278 279
211 217 220 225 226 227 228 233 237 247 246 256 260 265 278 283 259 262 264 278 285 289 290 288 289 287 289 290 291 290 289 286 286 286 286 285 284 283 282 281 281 281 282 282
211 214 218 221 225 225 225 233 239 241 251 263 263 267 278 285 267 264 276 290 285 286 288 288 289 288 289 290 291 290 289 289 289 288 288 287 286 285 285 284 283 283 283 283
204 211 212 219 222 227 231 234 237 248 254 263 263 271 285 281 286 282 277 274 279 283 285 288 290 289 291 292 293 292 291 291 291 290 289 289 289 289 287 287 286 285 285 285
206 207 213 218 223 224 230 233 237 246 253 262 271 275 282 287 286 291 278 280 283 284 287 289 292 294 295 295 294 294 293 292 291 291 291 291 290 290 290 290 290 289 289 289
200 202 202 213 220 226 230 234 238 244 254 260 273 280 282 284 293 286 286 287 288 291 292 295 297 297 296 295 294 293 293 294 294 295 294 294 293 293 292 291 290 289 290 291
201 203 206 210 216 221 226 233 239 246 255 271 279 279 281 292 292 291 292 293 294 296 298 299 298 298 297 296 296 297 298 297 297 296 295 295 294 293 293 294 294 295 294 294
202 201 202 206 213 213 217 228 234 240 243 258 265 274 282 284 284 289 293 296 298 298 297 297 298 298 298 298 298 298 297 298 298 298 299 299 299 299 298 298 297 296 295 294
194 201 207 214 218 222 231 240 249 257 256 258 269 278 281 282 289 293 297 299 299 300 301 301 300 299 299 300 302 303 303 304 304 305 304 303 302 300 298 296 295 294 293 292
196 201 212 217 224 229 230 243 245 248 252 262 274 278 281 290 295 296 299 301 302 301 301 302 303 305 307 308 308 308 308 308 306 305 303 301 299 298 297 297 296 295 294 293
204 213 217 220 223 229 235 238 243 250 253 260 261 267 281 297 301 299 300 300 301 302 305 306 308 309 309 312 313 311 308 306 305 303 302 300 298 297 297 296 295 294 293 292
207 217 212 225 227 230 233 237 242 249 257 263 269 272 281 292 293 297 300 303 306 308 307 308 310 314 313 311 308 307 304 304 303 302 301 299 298 297 296 295 294 294 293 292
215 224 216 219 227 233 237 240 245 254 265 277 275 284 287 291 299 302 305 306 306 308 312 316 312 312 312 308 305 303 302 301 302 302 300 299 298 296 296 295 294 293 293 292
211 219 230 237 243 241 245 252 258 264 270 268 280 282 286 291 301 301 303 305 310 314 315 317 312 309 309 308 306 305 304 303 304 302 300 299 299 298 297 296 295 295 295 295
223 230 241 243 245 245 249 255 259 263 268 274 279 289 297 303 301 295 301 307 314 317 317 314 311 308 307 307 307 305 305 307 303 301 301 302 300 299 298 298 298 300 300 300
228 230 235 238 245 247 250 255 262 267 274 281 286 291 296 291 302 306 312 313 317 313 313 310 308 307 307 308 307 307 307 305 302 302 303 303 302 302 302 303 303 303 302 298
223 227 235 236 247 252 258 267 271 278 283 285 289 291 291 298 305 308 311 317 312 312 312 311 310 310 309 309 310 308 305 304 304 305 306 305 304 304 306 306 304 301 301 301
230 238 249 255 257 263 271 273 276 279 281 285 284 285 298 303 304 307 314 313 312 313 311 308 308 309 310 310 310 307 304 306 308 309 308 308 309 309 308 307 306 306 306 306
254 258 263 267 270 274 269 272 271 272 273 277 291 306 303 304 310 312 315 311 311 311 311 310 310 311 311 310 307 306 308 311 311 310 311 311 310 310 311 310 308 309 310 310
264 268 271 270 270 270 272 262 268 258 278 290 299 301 306 308 311 310 310 313 315 313 312 311 311 311 309 307 308 310 312 312 313 313 312 311 312 313 311 312 312 312 313 313
266 268 270 270 269 268 267 259 260 280 294 297 304 310 309 311 309 311 314 315 315 313 312 312 312 311 309 307 308 312 313 314 314 313 313 314 315 315 314 314 314 316 316 315
264 267 267 269 271 264 247 259 273 290 296 303 306 310 310 309 311 314 315 315 315 314 314 315 313 310 306 308 312 314 314 314 314 314 316 316 318 314 314 318 319 319 319 317
265 263 259 264 253 237 247 265 280 289 298 305 306 306 308 311 313 313 315 316 316 316 314 313 309 305 309 313 313 314 314 313 314 316 316 319 318 316 318 321 321 321 320 319
259 262 263 249 244 250 266 273 285 297 302 305 307 309 312 312 312 315 316 316 315 314 315 309 306 310 313 314 314 314 313 314 316 317 320 320 319 320 323 324 324 324 322 322
257 254 245 243 252 262 274 286 291 299 304 307 308 310 311 311 314 317 317 316 316 316 310 307 311 314 315 316 315 315 316 317 318 320 320 320 321 321 324 327 325 324 326 326
255 246 242 246 257 266 279 291 298 303 304 306 308 310 312 314 316 316 316 318 317 311 308 312 314 317 318 318 319 321 320 318 319 320 318 321 322 323 327 327 328 327 327 327
Height
5764 5771 5779 5788 5797 5806 5812 5815 5818 5819 5822 5827 5828 5829 5827 5827 5827 5831 5829 5828 5827 5826 5826 5825 5824 5821 5820 5818 5818 5817 5813 5812 5809 5807 5804 5802 5799 5798 5795 5793 5791 5789 5787 5785
5756 5765 5776 5785 5793 5800 5806 5808 5813 5812 5815 5820 5821 5823 5823 5821 5821 5822 5823 5823 5822 5819 5818 5819 5819 5814 5813 5811 5809 5809 5806 5803 5801 5798 5796 5793 5791 5788 5787 5784 5782 5779 5777 5774
5754 5765 5773 5780 5787 5792 5798 5800 5807 5810 5811 5816 5815 5817 5818 5817 5817 5816 5817 5818 5817 5815 5811 5811 5812 5809 5806 5804 5801 5799 5798 5794 5792 5789 5787 5784 5782 5779 5776 5775 5772 5768 5765 5761
5753 5759 5767 5774 5780 5789 5794 5799 5802 5803 5809 5809 5810 5812 5812 5812 5813 5810 5813 5812 5811 5809 5806 5804 5804 5802 5799 5797 5795 5792 5788 5787 5783 5781 5778 5775 5772 5769 5765 5763 5761 5757 5753 5750
5751 5759 5765 5771 5778 5784 5788 5793 5799 5800 5803 5804 5805 5806 5809 5805 5805 5807 5807 5806 5804 5803 5800 5797 5796 5794 5792 5789 5787 5783 5780 5777 5776 5772 5769 5766 5763 5759 5754 5750 5747 5743 5739 5734
5747 5754 5761 5767 5774 5780 5786 5790 5793 5796 5798 5799 5803 5800 5800 5802 5801 5800 5800 5799 5798 5796 5794 5792 5789 5787 5784 5782 5779 5776 5772 5769 5766 5763 5760 5757 5752 5748 5743 5737 5733 5729 5724 5719
5748 5755 5760 5767 5771 5777 5781 5785 5789 5792 5794 5795 5795 5796 5793 5797 5795 5795 5794 5793 5792 5790 5787 5785 5782 5780 5777 5774 5771 5767 5764 5760 5756 5753 5749 5744 5740 5736 5730 5724 5719 5713 5707 5702
5750 5756 5759 5764 5769 5774 5778 5781 5785 5786 5790 5789 5789 5790 5793 5793 5792 5790 5789 5787 5785 5783 5781 5779 5775 5772 5769 5766 5762 5759 5755 5751 5746 5741 5736 5732 5727 5722 5716 5710 5704 5698 5692 5687
5750 5754 5759 5763 5767 5772 5775 5778 5781 5782 5786 5786 5787 5786 5787 5787 5786 5784 5782 5780 5778 5776 5773 5770 5767 5764 5760 5757 5753 5749 5744 5739 5734 5729 5723 5717 5711 5707 5702 5696 5689 5683 5676 5669
5748 5753 5757 5761 5765 5768 5771 5775 5777 5778 5780 5781 5783 5780 5777 5782 5781 5778 5776 5773 5771 5768 5764 5761 5757 5753 5750 5746 5741 5736 5731 5727 5721 5715 5709 5703 5697 5691 5685 5679 5673 5666 5658 5651
5749 5753 5757 5758 5761 5764 5768 5770 5772 5774 5777 5776 5779 5776 5773 5773 5773 5771 5769 5766 5763 5760 5756 5752 5748 5743 5739 5736 5731 5726 5721 5715 5710 5704 5696 5689 5682 5675 5668 5660 5652 5646 5640 5633
5748 5750 5753 5757 5759 5761 5763 5766 5769 5770 5771 5773 5772 5772 5769 5768 5766 5765 5762 5759 5755 5751 5747 5743 5740 5736 5732 5727 5721 5716 5710 5704 5697 5691 5682 5674 5666 5658 5651 5643 5636 5628 5622 5614
5747 5749 5752 5754 5757 5758 5761 5763 5765 5766 5766 5766 5766 5766 5764 5761 5760 5756 5754 5751 5748 5744 5740 5737 5732 5727 5722 5716 5709 5703 5696 5689 5683 5677 5666 5658 5649 5641 5633 5625 5617 5609 5602 5595
5746 5748 5749 5753 5755 5756 5757 5759 5759 5760 5762 5761 5761 5758 5758 5756 5755 5751 5747 5744 5742 5738 5733 5729 5723 5716 5710 5703 5696 5688 5681 5673 5666 5656 5649 5640 5631 5623 5614 5606 5598 5590 5582 5576
5744 5746 5748 5750 5751 5752 5754 5755 5756 5757 5756 5755 5755 5752 5749 5747 5748 5745 5743 5738 5734 5730 5725 5719 5712 5704 5697 5690 5682 5674 5666 5658 5647 5638 5628 5619 5611 5603 5595 5587 5579 5571 5562 5553
5742 5744 5745 5746 5748 5749 5750 5751 5751 5751 5751 5750 5749 5748 5746 5742 5740 5737 5734 5731 5726 5718 5714 5707 5699 5692 5684 5677 5669 5659 5649 5638 5629 5620 5611 5602 5593 5585 5576 5567 5558 5549 5539 5531
5740 5741 5742 5744 5744 5745 5747 5746 5746 5745 5745 5744 5743 5742 5741 5739 5736 5732 5727 5722 5715 5709 5702 5694 5686 5678 5670 5661 5652 5642 5631 5621 5611 5602 5593 5584 5575 5566 5556 5546 5536 5526 5518 5511
5737 5738 5739 5740 5740 5741 5742 5741 5740 5740 5739 5738 5737 5736 5735 5733 5729 5723 5718 5712 5705 5698 5690 5680 5673 5665 5656 5646 5636 5625 5614 5604 5594 5585 5576 5565 5555 5545 5535 5526 5518 5510 5503 5496
5734 5735 5736 5736 5736 5736 5737 5735 5735 5734 5736 5733 5733 5732 5729 5724 5720 5713 5708 5701 5693 5685 5677 5669 5660 5650 5640 5630 5619 5608 5597 5588 5579 5568 5558 5547 5537 5529 5521 5513 5505 5498 5492 5487
5731 5731 5732 5732 5730 5731 5731 5730 5730 5731 5732 5730 5728 5724 5719 5715 5711 5703 5696 5689 5681 5671 5662 5654 5644 5634 5623 5612 5600 5590 5581 5572 5562 5551 5542 5532 5524 5516 5509 5501 5495 5490 5484 5478
5727 5727 5727 5726 5726 5727 5727 5727 5727 5728 5729 5724 5720 5716 5710 5706 5700 5692 5684 5677 5667 5658 5649 5640 5629 5618 5605 5594 5584 5575 5566 5557 5547 5537 5529 5521 5513 5505 5498 5493 5487 5481 5475 5469
5723 5723 5723 5722 5723 5724 5723 5724 5724 5723 5719 5716 5712 5707 5701 5695 5688 5681 5672 5663 5654 5644 5634 5624 5614 5602 5589 5578 5570 5561 5552 5542 5533 5526 5518 5511 5503 5496 5491 5486 5479 5473 5465 5459
5719 5719 5718 5719 5719 5719 5720 5719 5718 5716 5713 5710 5705 5699 5692 5686 5678 5669 5659 5650 5641 5632 5622 5610 5598 5585 5574 5565 5556 5548 5538 5530 5523 5516 5509 5502 5495 5489 5484 5478 5472 5465 5457 5450
5713 5714 5714 5714 5715 5714 5714 5714 5712 5709 5705 5702 5696 5690 5683 5675 5665 5658 5648 5638 5628 5618 5607 5594 5581 5571 5562 5552 5543 5534 5527 5520 5514 5507 5501 5494 5489 5484 5478 5471 5463 5456 5450 5443
5710 5709 5709 5711 5710 5710 5708 5707 5705 5703 5697 5692 5686 5680 5672 5664 5655 5645 5635 5625 5615 5603 5589 5576 5566 5557 5548 5539 5531 5523 5517 5511 5505 5499 5493 5488 5484 5479 5473 5465 5455 5448 5443 5438
5704 5703 5704 5705 5705 5704 5705 5703 5698 5695 5690 5684 5677 5669 5661 5652 5642 5633 5623 5613 5600 5586 5574 5563 5553 5544 5536 5528 5521 5514 5508 5502 5497 5492 5487 5483 5479 5473 5467 5460 5453 5443 5438 5433